Showing default

FLOCK 4H 4, 66707

Orbit data source: Space-Track

FLOCK 4H 4, 66707 is a payload satellite owned by Planet (US) in SSO that was launched on Fri, 28 Nov 2025 UTC via an FALCON 9 launch vehicle from the Air Force Western Test Range (AFWTR). Payload-class satellites include a variety of spacecraft equipped with specific instruments for various scientific and technological missions. These include communications satellites like Starlink; space stations such as the ISS; scientific satellites like the Hubble; Earth observation satellites from companies like Planet Labs, Umbra, and HawkEye 360; GPS; miniature CubeSats for education and research; and military/defense satellites.

Loading next visibility...
Identifier
66707, 2025-276AT
Orbit
SSO
Country
Flag of USUS
Related business
Manufacturer
Planet
Mission
Operational Commercial Imaging
Bus & Motor
CUBESAT 3U, Unknown motor
Mass
5.7 kg wet, 5.7 kg dry
Launch date (UTC)
2025-11-28 (9 months ago)
Launch vehicle
FALCON 9
Launch site
Air Force Western Test Range (AFWTR)
Object type
Payload
Rocket body
Debris
Shape & HBR
Box + 2 Pan, 1.0 m
Radar Cross Section
0.072 m², Medium (>0.1 m² and < 1m²)

Expand to show TLE details & history
Last TLE update: 19 hours ago

TLE from 19 hours ago
0 FLOCK 4H 4
1 66707U 25276AT  26238.20480400  .00006294  00000-0  29102-3 0  9995
2 66707  97.4187 310.6157 0006224 112.7558 247.4335 15.20492045 41050
Epoch: 2026-08-26T04:54Z
TLE epoch observation values (Epoch: 2026-08-26T04:54:55.065Z)
Latitude
-0.00009°
Longitude
-97.57488°
Altitude
509.093 km
Speed
7.609 km/s
True Right ascension
20h 42m 27s
True Declination
0° 00' 00"
Sunlit
Object was in full shadow at epoch
Visualization orbit readout
Latitude
Unknown
Longitude
Unknown
Altitude
Unknown
Speed
Unknown
Apparent Right ascension
Unknown
Apparent Declination
Unknown
Sunlit
N/A
Visualization observer readout
Local Sidereal Time
15:15:13
Azimuth
Unknown
Elevation
Unknown
Doppler factor
Unknown
Orbital elements
Apogee altitude
505.603 km
Perigee altitude
497.039 km
Semi-major axis
6,879.458 km
Eccentricity
0.00062
Inclination
97.4187°
RAAN
310.6157°
Arg. of periapsis
112.7558°
True anomaly
247.36766°
Mean anomaly
247.4335°
Eccentric anomaly
247.40058°
Mean motion
3.80375 °/min
Orbital period
94.64 mins
BSTAR
0.00029102
Loading maneuver chart data...
Computing Atmospheric mass density...
Loading historical data...
Loading historical data...
Loading historical data...
Loading historical data...
Loading historical data...
Loading historical data...
Loading historical data...

Documentation

Showing up to 5 results
|